"startDT [UTC]","vpos","CH4 [ppm]","stdev(CH4) [ppm]","CO2 [ppm]","stdev(CO2) [ppm]","H2O [ppm]","stdev(H2O)","p_LGR [torr]","T_LGR [C]","mt1_LGR [us]","mt2_LGR [us]","T_ECpre [C]","T_EC1 [C]","T_EC2 [C]","p_inlet [hPa]","p_in [hPa]","p_out [hPa]","T_inlet [C]","RH_inlet [%]","dwpt_inlet [C]","T_vent [C]","RH_vent [%]","dwpt_vent [C]","flow_vent [l min-1]","flow_inlet [l min-1]","dwpt_sample [C]","T_room [C]"
2012-06-05 00:00:00,0.0,,,,,,,,,,,0.84,-27.22,4.44,-54,539,-920,22.9,19.4,-1.7,23.0,1.6,-30.9,5.73,2.35,-28.3,28.8
2012-06-05 00:01:00,0.0,1.8917,0.0010,401.49,0.20,-0.6,2.3,138.05,30.42,24.65,36.48,0.88,-27.21,5.04,-54,540,-920,23.0,19.0,-1.9,23.1,1.6,-30.9,5.73,2.32,-28.3,28.8
2012-06-05 00:02:00,0.0,1.8918,0.0009,401.46,0.18,-0.3,3.5,138.04,30.42,24.64,36.48,0.90,-27.21,5.60,-54,540,-920,23.1,18.9,-1.9,23.1,1.6,-30.9,5.73,2.31,-28.3,28.9
2012-06-05 00:03:00,0.0,1.8922,0.0007,401.39,0.18,-1.0,0.0,138.04,30.43,24.64,36.48,0.92,-27.20,6.13,-54,540,-920,23.1,18.9,-1.8,23.2,1.6,-31.1,5.73,2.34,-28.3,28.9
2012-06-05 00:04:00,0.0,,,,,,,,,,,0.95,-27.20,6.63,-54,540,-920,23.2,19.0,-1.7,23.3,1.6,-31.1,5.73,2.31,-28.2,28.9
2012-06-05 00:05:00,0.0,,,,,,,,,,,0.90,-27.20,7.10,-54,540,-920,23.3,18.7,-1.8,23.3,1.6,-31.1,5.73,2.31,-28.2,29.0
2012-06-05 00:06:00,0.0,,,,,,,,,,,0.83,-27.20,7.54,-54,540,-920,23.3,18.6,-2.0,23.3,1.6,-31.1,5.73,2.34,-28.2,29.1
"startDT [UTC]","vpos","CH4 [ppm]","stdev(CH4) [ppm]","CO2 [ppm]","stdev(CO2) [ppm]","H2O [ppm]","stdev(H2O)","p_LGR [torr]","T_LGR [C]","mt1_LGR [us]","mt2_LGR [us]","T_ECpre [C]","T_EC1 [C]","T_EC2 [C]","p_inlet [hPa]","p_in [hPa]","p_out [hPa]","T_inlet [C]","RH_inlet [%]","dwpt_inlet [C]","T_vent [C]","RH_vent [%]","dwpt_vent [C]","flow_vent [l min-1]","flow_inlet [l min-1]","dwpt_sample [C]","T_room [C]"
2012-06-05 00:10:00,0.0,,,,,,,,,,,0.95,-27.19,9.14,-54,541,-921,23.5,18.2,-2.1,23.5,1.6,-31.2,5.73,2.29,-28.1,29.3
2012-06-05 00:11:00,0.0,,,,,,,,,,,0.89,-27.20,9.51,-54,541,-921,23.6,18.4,-1.9,23.6,1.5,-31.3,5.73,2.33,-28.1,29.3
2012-06-05 00:12:00,0.0,,,,,,,,,,,0.82,-27.19,9.87,-54,541,-921,23.6,18.3,-1.8,23.6,1.5,-31.2,5.73,2.32,-28.0,29.3
2012-06-05 00:13:00,0.0,,,,,,,,,,,0.85,-27.19,10.22,-54,541,-921,23.7,18.4,-1.7,23.7,1.5,-31.4,5.73,2.29,-28.0,29.2
2012-06-05 00:14:00,0.0,,,,,,,,,,,0.87,-27.19,10.56,-54,541,-921,23.7,18.4,-1.7,23.7,1.5,-31.2,5.73,2.33,-28.0,29.3
2012-06-05 00:15:00,0.0,,,,,,,,,,,0.92,-27.18,10.88,-54,541,-921,23.7,18.4,-1.7,23.8,1.5,-31.2,5.73,2.30,-28.0,29.3
2012-06-05 00:16:00,0.0,,,,,,,,,,,0.95,-27.18,11.19,-54,541,-920,23.8,18.1,-1.9,23.8,1.5,-31.2,5.73,2.30,-28.0,29.3
2012-06-05 00:17:00,0.0,,,,,,,,,,,0.92,-27.18,11.49,-54,542,-920,23.9,17.9,-2.0,23.8,1.5,-31.2,5.73,2.33,-28.0,29.4
2012-06-05 00:18:00,0.0,,,,,,,,,,,0.85,-27.17,11.78,-54,542,-920,23.9,17.9,-2.0,23.9,1.5,-31.3,5.73,2.29,-28.0,29.3
2012-06-05 00:19:00,0.0,,,,,,,,,,,0.83,-27.17,12.06,-54,542,-920,23.9,17.8,-2.0,23.9,1.5,-31.5,5.73,2.32,-28.0,29.3
2012-06-05 00:20:00,0.0,,,,,,,,,,,0.87,-27.17,12.33,-54,542,-920,24.0,18.0,-1.8,24.0,1.5,-31.3,5.73,2.31,-28.0,29.3
2012-06-05 00:21:00,0.0,,,,,,,,,,,0.91,-27.16,12.59,-55,542,-921,24.0,17.9,-1.9,24.0,1.5,-31.3,5.73,2.28,-28.0,29.4
2012-06-05 00:22:00,0.0,,,,,,,,,,,0.94,-27.17,12.84,-55,542,-921,24.1,17.8,-1.9,24.0,1.5,-31.2,5.73,2.33,-28.0,29.4
2012-06-05 00:23:00,0.0,,,,,,,,,,,0.95,-27.17,13.08,-54,542,-921,24.1,18.0,-1.7,24.1,1.5,-31.3,5.73,2.29,-27.9,29.5
2012-06-05 00:24:00,0.0,,,,,,,,,,,0.90,-27.17,13.30,-55,542,-921,24.1,18.0,-1.7,24.1,1.5,-31.2,5.73,2.30,-28.0,29.6
2012-06-05 00:25:00,0.0,,,,,,,,,,,0.99,-45.64,-8.85,-55,542,-921,24.1,18.1,-1.6,24.1,1.5,-31.3,5.42,2.39,-32.0,29.6
2012-06-05 00:26:00,0.0,,,,,,,,,,,0.85,-27.16,13.73,-55,542,-921,24.2,18.1,-1.6,24.2,1.5,-31.4,5.73,2.28,-28.0,29.6
2012-06-05 00:27:00,0.0,,,,,,,,,,,0.88,-27.16,13.93,-55,542,-921,24.2,17.9,-1.7,24.2,1.5,-31.3,5.73,2.32,-28.0,29.6
2012-06-05 00:28:00,0.0,,,,,,,,,,,0.91,-27.16,14.11,-55,543,-921,24.3,17.7,-1.8,24.2,1.4,-31.7,5.73,2.29,-28.0,29.6
2012-06-05 00:29:00,0.0,,,,,,,,,,,0.94,-27.16,14.29,-55,543,-921,24.3,17.7,-1.8,24.2,1.4,-31.9,5.73,2.29,-28.0,29.6
2012-06-05 00:30:00,0.0,,,,,,,,,,,0.94,-27.16,14.47,-55,543,-921,24.3,17.6,-1.9,24.3,1.4,-31.9,5.73,2.32,-28.0,29.7
2012-06-05 00:31:00,0.0,,,,,,,,,,,0.89,-27.16,14.63,-55,543,-921,24.3,17.6,-1.9,24.3,1.4,-31.9,5.73,2.28,-28.0,29.7
2012-06-05 00:32:00,0.0,,,,,,,,,,,0.83,-27.16,14.79,-55,543,-921,24.4,17.5,-1.9,24.3,1.4,-31.9,5.73,2.31,-28.0,29.7
2012-06-05 00:33:00,0.0,,,,,,,,,,,0.84,-27.16,14.94,-55,543,-921,24.4,17.5,-1.9,24.3,1.4,-31.9,5.73,2.30,-28.0,29.8
2012-06-05 00:34:00,0.0,,,,,,,,,,,0.89,-27.16,15.09,-55,543,-921,24.4,17.4,-1.9,24.4,1.4,-31.8,5.73,2.29,-28.0,29.7
2012-06-05 00:35:00,0.0,,,,,,,,,,,0.91,-27.16,15.22,-55,543,-921,24.5,17.4,-1.9,24.4,1.4,-31.9,5.73,2.32,-28.0,29.8
2012-06-05 00:36:00,0.0,,,,,,,,,,,0.94,-27.16,15.35,-55,543,-921,24.5,17.3,-2.0,24.4,1.4,-31.7,5.73,2.28,-28.0,29.8
2012-06-05 00:37:00,0.0,,,,,,,,,,,0.95,-27.16,15.47,-55,543,-921,24.5,17.3,-1.9,24.5,1.4,-31.8,5.73,2.31,-28.0,29.8
2012-06-05 00:38:00,0.0,,,,,,,,,,,0.90,-27.16,15.60,-55,543,-921,24.5,17.4,-1.8,24.5,1.4,-31.9,5.73,2.30,-28.0,29.8
2012-06-05 00:39:00,0.0,,,,,,,,,,,0.85,-27.15,15.71,-55,544,-922,24.5,17.4,-1.8,24.5,1.4,-32.0,5.73,2.28,-28.0,29.8
2012-06-05 00:40:00,0.0,,,,,,,,,,,0.86,-27.16,15.83,-55,543,-922,24.6,17.3,-1.9,24.5,1.4,-32.0,5.73,2.32,-28.0,29.7
2012-06-05 00:41:00,0.0,,,,,,,,,,,0.87,-27.16,15.92,-55,543,-922,24.6,17.3,-1.8,24.6,1.4,-32.0,5.73,2.27,-28.0,29.8
2012-06-05 00:42:00,0.0,,,,,,,,,,,0.91,-27.17,16.02,-55,544,-922,24.6,17.3,-1.8,24.6,1.4,-31.9,5.73,2.30,-28.0,29.7
2012-06-05 00:43:00,0.0,,,,,,,,,,,0.93,-27.16,16.12,-55,543,-922,24.7,17.1,-1.9,24.6,1.4,-31.9,5.73,2.30,-28.0,29.8
2012-06-05 00:44:00,0.0,,,,,,,,,,,0.95,-27.16,16.22,-55,544,-922,24.7,17.0,-2.0,24.6,1.4,-31.9,5.73,2.28,-28.0,29.7
2012-06-05 00:45:00,0.0,,,,,,,,,,,0.90,-27.16,16.30,-55,544,-922,24.7,17.1,-2.0,24.6,1.4,-31.9,5.73,2.32,-28.0,29.7
2012-06-05 00:46:00,0.0,,,,,,,,,,,0.84,-27.16,16.39,-55,544,-922,24.7,17.0,-2.0,24.7,1.4,-31.9,5.73,2.28,-28.0,29.7
2012-06-05 00:47:00,0.0,,,,,,,,,,,0.86,-27.16,16.47,-55,544,-922,24.7,17.1,-1.9,24.7,1.4,-31.8,5.73,2.31,-28.0,29.8
2012-06-05 00:48:00,0.0,,,,,,,,,,,0.88,-27.16,16.55,-55,544,-922,24.7,17.1,-1.9,24.7,1.4,-31.8,5.73,2.30,-27.9,29.8
2012-06-05 00:49:00,0.0,,,,,,,,,,,0.90,-27.16,16.62,-55,544,-922,24.8,17.1,-1.9,24.7,1.4,-31.8,5.73,2.28,-28.0,29.7
2012-06-05 00:50:00,0.0,,,,,,,,,,,0.91,-27.16,16.69,-55,544,-922,24.8,17.2,-1.8,24.7,1.4,-31.9,5.73,2.31,-28.0,29.7
2012-06-05 00:51:00,0.0,,,,,,,,,,,0.94,-27.16,16.75,-55,544,-922,24.8,17.2,-1.8,24.7,1.4,-31.8,5.73,2.27,-28.0,29.7
2012-06-05 00:52:00,0.0,,,,,,,,,,,0.94,-27.16,16.81,-55,544,-922,24.8,17.1,-1.8,24.8,1.4,-31.8,5.73,2.31,-28.0,29.7
2012-06-05 00:53:00,0.0,,,,,,,,,,,0.86,-27.16,16.88,-55,544,-922,24.9,16.9,-2.0,24.8,1.3,-32.0,5.73,2.30,-28.0,29.7
2012-06-05 00:54:00,0.0,,,,,,,,,,,0.85,-27.16,16.93,-56,544,-923,24.9,17.0,-1.9,24.8,1.3,-32.0,5.73,2.28,-28.0,29.7
2012-06-05 00:55:00,0.0,,,,,,,,,,,0.86,-27.16,16.99,-55,544,-923,24.9,16.8,-2.0,24.8,1.3,-32.0,5.73,2.31,-28.0,29.7
2012-06-05 00:56:00,0.0,,,,,,,,,,,0.88,-27.16,17.04,-55,544,-922,24.9,16.9,-1.9,24.9,1.3,-32.0,5.73,2.27,-28.0,29.5
2012-06-05 00:57:00,0.0,,,,,,,,,,,0.90,-27.16,17.09,-56,544,-922,24.9,16.8,-2.0,24.9,1.3,-32.0,5.73,2.31,-28.0,29.7
2012-06-05 00:58:00,0.0,,,,,,,,,,,0.93,-27.16,17.15,-55,544,-922,25.0,16.7,-2.0,24.9,1.3,-31.9,5.73,2.29,-28.0,29.7
2012-06-05 00:59:00,0.0,,,,,,,,,,,0.95,-27.16,17.19,-56,544,-922,25.0,16.9,-1.8,24.9,1.3,-32.0,5.73,2.27,-28.0,29.7
2012-06-05 01:00:00,1.0,,,,,,,,,,,0.95,-27.17,17.23,-56,592,-922,25.0,16.7,-2.0,24.9,1.3,-31.9,5.73,2.30,-28.0,29.8
2012-06-05 01:01:00,1.0,,,,,,,,,,,0.84,-27.16,17.28,-55,592,-923,25.0,16.6,-2.0,24.9,1.3,-32.0,5.73,2.27,-28.0,29.7
2012-06-05 01:02:00,1.0,,,,,,,,,,,0.85,-27.16,17.31,-56,591,-923,25.0,16.8,-1.9,25.0,1.3,-31.9,5.73,2.30,-28.0,29.8
2012-06-05 01:03:00,1.0,,,,,,,,,,,0.88,-27.16,17.36,-56,591,-923,25.1,16.8,-1.9,25.0,1.3,-31.9,5.73,2.29,-28.0,29.7
2012-06-05 01:04:00,1.0,,,,,,,,,,,0.89,-27.16,17.39,-56,591,-922,25.1,16.7,-1.9,25.0,1.3,-31.9,5.73,2.27,-28.0,29.7
2012-06-05 01:05:00,1.0,,,,,,,,,,,0.91,-27.17,17.43,-56,591,-922,25.1,16.6,-2.0,25.0,1.3,-31.9,5.73,2.31,-28.0,29.7
2012-06-05 01:06:00,1.0,,,,,,,,,,,0.93,-27.17,17.46,-56,590,-922,25.1,16.7,-1.9,25.0,1.3,-31.9,5.73,2.26,-28.1,29.6
2012-06-05 01:07:00,4.0,,,,,,,,,,,0.97,-27.17,17.50,-55,596,-922,25.1,16.9,-1.8,25.1,1.3,-32.1,5.73,2.30,-28.1,29.5
2012-06-05 01:08:00,4.0,,,,,,,,,,,0.88,-27.16,17.53,-56,595,-923,25.2,16.8,-1.8,25.1,1.3,-32.1,5.73,2.28,-28.1,29.4
2012-06-05 01:09:00,4.0,,,,,,,,,,,0.83,-27.17,17.56,-56,594,-923,25.2,16.7,-1.8,25.1,1.3,-32.1,5.73,2.27,-28.1,29.4
2012-06-05 01:10:00,4.0,,,,,,,,,,,0.86,-27.17,17.59,-55,594,-923,25.2,16.7,-1.9,25.1,1.3,-32.1,5.73,2.30,-28.2,29.3
2012-06-05 01:11:00,4.0,,,,,,,,,,,0.88,-27.16,17.61,-56,594,-922,25.2,16.6,-1.9,25.1,1.3,-32.0,5.73,2.26,-28.2,29.2
2012-06-05 01:12:00,4.0,,,,,,,,,,,0.90,-27.17,17.64,-56,594,-922,25.2,16.5,-2.0,25.2,1.3,-32.0,5.73,2.30,-28.2,29.2
2012-06-05 01:13:00,4.0,,,,,,,,,,,0.93,-27.17,17.66,-55,594,-923,25.2,16.4,-2.1,25.2,1.3,-32.1,5.73,2.27,-28.3,29.1
2012-06-05 01:14:00,5.0,,,,,,,,,,,0.97,-27.17,17.69,-56,602,-923,25.2,16.4,-2.0,25.2,1.3,-32.0,5.73,2.29,-28.3,29.2
2012-06-05 01:15:00,5.0,,,,,,,,,,,0.92,-27.17,17.71,-56,611,-923,25.3,16.4,-2.1,25.2,1.3,-32.0,5.73,2.30,-28.3,29.2
2012-06-05 01:16:00,5.0,,,,,,,,,,,0.87,-27.17,17.74,-56,613,-922,25.3,16.4,-2.1,25.2,1.3,-32.0,5.73,2.26,-28.4,29.3
2012-06-05 01:17:00,5.0,,,,,,,,,,,0.84,-27.17,17.76,-56,608,-922,25.3,16.6,-1.8,25.2,1.3,-31.9,5.73,2.30,-28.5,29.2
2012-06-05 01:18:00,5.0,,,,,,,,,,,0.85,-27.17,17.78,-56,603,-923,25.3,16.7,-1.8,25.2,1.3,-32.0,5.73,2.26,-28.5,29.2
2012-06-05 01:19:00,5.0,,,,,,,,,,,0.88,-27.17,17.80,-56,601,-923,25.3,16.6,-1.8,25.2,1.3,-32.1,5.73,2.29,-28.6,29.3
2012-06-05 01:20:00,5.0,,,,,,,,,,,0.92,-27.17,17.81,-56,599,-922,25.3,16.3,-2.0,25.3,1.3,-32.1,5.73,2.29,-28.6,29.2
2012-06-05 01:21:00,2.0,,,,,,,,,,,0.95,-27.17,17.83,-56,580,-922,25.3,16.2,-2.1,25.3,1.3,-32.2,5.73,2.28,-28.7,29.3
2012-06-05 01:22:00,2.0,,,,,,,,,,,0.95,-27.17,17.85,-56,582,-923,25.3,16.0,-2.3,25.3,1.3,-32.2,5.73,2.31,-28.7,29.2
2012-06-05 01:23:00,2.0,,,,,,,,,,,0.92,-27.17,17.86,-56,583,-923,25.4,16.1,-2.2,25.3,1.3,-32.2,5.73,2.26,-28.8,29.2
2012-06-05 01:24:00,2.0,,,,,,,,,,,0.85,-27.17,17.88,-56,583,-923,25.4,16.1,-2.2,25.3,1.3,-32.2,5.73,2.30,-28.8,29.2
2012-06-05 01:25:00,2.0,,,,,,,,,,,0.84,-27.17,17.90,-56,583,-922,25.4,16.2,-2.1,25.3,1.3,-32.2,5.73,2.27,-28.9,29.2
2012-06-05 01:26:00,2.0,,,,,,,,,,,0.87,-27.18,17.91,-56,584,-923,25.4,16.3,-2.0,25.3,1.3,-32.2,5.73,2.27,-28.9,29.2
2012-06-05 01:27:00,2.0,,,,,,,,,,,0.89,-27.17,17.92,-56,584,-923,25.4,16.2,-2.1,25.3,1.3,-32.1,5.73,2.30,-29.0,29.3
2012-06-05 01:28:00,0.0,,,,,,,,,,,0.91,-27.17,17.95,-56,543,-923,25.5,16.2,-2.0,25.3,1.3,-32.1,5.73,2.28,-29.1,29.3
2012-06-05 01:29:00,0.0,,,,,,,,,,,0.93,-27.17,17.95,-56,544,-922,25.5,16.2,-2.1,25.3,1.3,-32.2,5.73,2.31,-29.2,29.4
2012-06-05 01:30:00,0.0,,,,,,,,,,,0.97,-27.18,17.88,-56,544,-922,25.5,16.2,-2.0,25.3,1.3,-32.1,5.73,2.28,-29.2,29.3
2012-06-05 01:31:00,0.0,,,,,,,,,,,1.00,-27.17,16.53,-56,544,-923,25.5,16.4,-1.8,25.3,1.3,-32.1,5.73,2.29,-29.3,29.3
2012-06-05 01:32:00,0.0,,,,,,,,,,,1.08,-27.16,14.26,-56,544,-923,25.5,16.3,-1.9,25.4,1.3,-32.1,5.73,2.30,-29.3,29.2
2012-06-05 01:33:00,0.0,,,,,,,,,,,0.99,-27.17,11.86,-56,544,-922,25.5,16.0,-2.1,25.4,1.3,-32.1,5.73,2.27,-29.3,29.2
2012-06-05 01:34:00,0.0,,,,,,,,,,,0.92,-27.18,9.50,-56,545,-923,25.5,16.2,-2.0,25.4,1.3,-32.1,5.73,2.31,-29.4,29.3
2012-06-05 01:35:00,0.0,,,,,,,,,,,0.98,-27.19,7.22,-56,544,-923,25.6,15.9,-2.2,25.5,1.3,-32.1,5.73,2.27,-29.4,29.3
2012-06-05 01:36:00,0.0,,,,,,,,,,,1.06,-27.19,5.03,-56,545,-923,25.6,15.9,-2.2,25.5,1.3,-32.0,5.73,2.29,-29.4,29.3
2012-06-05 01:37:00,0.0,,,,,,,,,,,0.98,-27.20,2.94,-56,545,-922,25.6,15.9,-2.1,25.5,1.3,-32.0,5.73,2.29,-29.4,29.4
2012-06-05 01:38:00,0.0,,,,,,,,,,,0.94,-27.20,0.96,-56,545,-923,25.6,16.0,-2.1,25.5,1.3,-32.0,5.73,2.27,-29.4,29.4
2012-06-05 01:39:00,0.0,,,,,,,,,,,1.04,-27.20,-0.91,-56,545,-923,25.6,15.7,-2.3,25.5,1.3,-32.0,5.73,2.31,-29.4,29.3
2012-06-05 01:40:00,0.0,,,,,,,,,,,1.02,-27.21,-2.60,-56,545,-922,25.7,15.7,-2.3,25.6,1.3,-32.0,5.73,2.27,-29.4,29.3
2012-06-05 01:41:00,0.0,,,,,,,,,,,0.92,-27.21,-4.12,-56,545,-923,25.7,15.7,-2.3,25.6,1.3,-32.1,5.73,2.30,-29.3,29.5
2012-06-05 01:42:00,0.0,,,,,,,,,,,0.97,-27.22,-5.61,-56,545,-923,25.7,15.8,-2.1,25.6,1.2,-32.2,5.73,2.28,-29.3,29.6
2012-06-05 01:43:00,0.0,,,,,,,,,,,1.05,-27.22,-7.08,-56,545,-923,25.7,15.7,-2.3,25.7,1.2,-32.2,5.73,2.27,-29.3,29.6
2012-06-05 01:44:00,0.0,,,,,,,,,,,0.98,-27.23,-8.45,-56,545,-923,25.8,15.8,-2.1,25.7,1.2,-32.2,5.73,2.30,-29.3,29.7
2012-06-05 01:45:00,0.0,,,,,,,,,,,0.91,-27.24,-9.69,-56,546,-923,25.8,15.6,-2.3,25.7,1.2,-32.2,5.73,2.26,-29.3,29.7
2012-06-05 01:46:00,0.0,,,,,,,,,,,0.96,-27.25,-10.86,-56,546,-923,25.8,15.7,-2.2,25.7,1.2,-32.2,5.73,2.30,-29.3,29.7
2012-06-05 01:47:00,0.0,,,,,,,,,,,1.01,-27.26,-12.00,-56,546,-923,25.8,15.9,-2.0,25.7,1.2,-32.2,5.73,2.27,-29.3,29.8
2012-06-05 01:48:00,0.0,,,,,,,,,,,1.02,-27.27,-13.09,-56,546,-923,25.8,15.8,-2.1,25.7,1.2,-32.1,5.73,2.28,-29.3,29.8
2012-06-05 01:49:00,0.0,,,,,,,,,,,0.95,-27.29,-14.12,-56,546,-923,25.8,15.8,-2.1,25.8,1.2,-32.1,5.73,2.30,-29.3,29.8
2012-06-05 01:50:00,0.0,,,,,,,,,,,0.91,-27.29,-15.09,-56,546,-923,25.8,15.7,-2.1,25.8,1.2,-32.1,5.73,2.26,-29.3,30.0
2012-06-05 01:51:00,0.0,,,,,,,,,,,0.96,-27.32,-16.01,-56,546,-923,25.9,15.6,-2.2,25.8,1.2,-32.1,5.73,2.30,-29.3,30.1
2012-06-05 01:52:00,0.0,,,,,,,,,,,1.00,-27.32,-16.84,-56,546,-924,25.9,15.4,-2.4,25.8,1.2,-32.3,5.73,2.26,-29.3,30.0
2012-06-05 01:53:00,0.0,,,,,,,,,,,1.01,-27.34,-17.55,-56,546,-923,25.9,15.6,-2.2,25.8,1.2,-32.4,5.73,2.29,-29.3,30.0
2012-06-05 01:54:00,0.0,,,,,,,,,,,0.94,-27.35,-18.33,-57,546,-923,25.9,15.8,-2.0,25.9,1.2,-32.2,5.73,2.28,-29.2,30.0
2012-06-05 01:55:00,0.0,,,,,,,,,,,0.91,-27.36,-19.10,-56,546,-924,25.9,15.5,-2.3,25.9,1.2,-32.3,5.73,2.26,-29.2,30.1
2012-06-05 01:56:00,0.0,,,,,,,,,,,0.95,-27.37,-19.81,-56,547,-923,25.9,15.8,-2.0,25.9,1.2,-32.3,5.73,2.30,-29.2,30.1
2012-06-05 01:57:00,0.0,,,,,,,,,,,0.98,-27.38,-20.49,-57,546,-923,26.0,15.7,-2.1,25.9,1.2,-32.3,5.73,2.26,-29.2,30.2
2012-06-05 01:58:00,0.0,,,,,,,,,,,1.02,-27.41,-21.13,-56,547,-923,26.0,15.4,-2.3,25.9,1.2,-32.3,5.73,2.29,-29.2,30.3
2012-06-05 01:59:00,0.0,,,,,,,,,,,0.98,-27.42,-21.71,-57,547,-924,26.0,15.6,-2.2,25.9,1.2,-32.3,5.73,2.27,-29.2,30.3
2012-06-05 02:00:00,0.0,,,,,,,,,,,0.92,-27.43,-22.26,-57,547,-923,26.0,15.7,-2.0,25.9,1.2,-32.3,5.73,2.28,-29.1,30.4
2012-06-05 02:01:00,0.0,,,,,,,,,,,0.92,-27.44,-22.77,-56,547,-923,26.0,15.5,-2.2,25.9,1.2,-32.4,5.73,2.29,-29.1,30.4
2012-06-05 02:02:00,0.0,,,,,,,,,,,0.95,-27.46,-23.26,-57,547,-924,26.0,15.5,-2.2,25.9,1.2,-32.5,5.73,2.26,-29.1,30.5
2012-06-05 02:03:00,0.0,,,,,,,,,,,0.97,-27.47,-23.71,-57,547,-923,26.0,15.6,-2.1,26.0,1.2,-32.5,5.73,2.30,-29.1,30.4
2012-06-05 02:04:00,0.0,,,,,,,,,,,1.00,-27.49,-24.14,-57,547,-923,26.0,15.5,-2.2,26.0,1.2,-32.5,5.73,2.25,-29.1,30.4
2012-06-05 02:05:00,0.0,,,,,,,,,,,0.97,-27.50,-24.54,-57,547,-924,26.0,15.4,-2.3,26.0,1.2,-32.5,5.73,2.29,-29.1,30.5
2012-06-05 02:06:00,0.0,,,,,,,,,,,0.94,-27.51,-24.93,-57,547,-924,26.1,15.3,-2.3,26.0,1.2,-32.5,5.73,2.27,-29.0,30.4
2012-06-05 02:07:00,0.0,,,,,,,,,,,0.91,-27.52,-25.29,-57,547,-923,26.1,15.7,-2.0,26.0,1.2,-32.5,5.73,2.27,-29.0,30.5
2012-06-05 02:08:00,0.0,,,,,,,,,,,0.93,-27.53,-25.63,-57,547,-923,26.1,15.8,-1.9,26.0,1.2,-32.4,5.73,2.29,-29.0,30.3
2012-06-05 02:09:00,0.0,,,,,,,,,,,0.96,-27.54,-25.95,-57,547,-924,26.1,15.6,-2.1,26.0,1.2,-32.5,5.73,2.25,-29.0,30.4
2012-06-05 02:10:00,0.0,,,,,,,,,,,0.97,-27.55,-26.25,-57,547,-923,26.1,15.4,-2.2,26.1,1.2,-32.4,5.73,2.30,-29.0,30.5
2012-06-05 02:11:00,0.0,,,,,,,,,,,1.00,-27.57,-26.53,-57,547,-923,26.1,15.6,-2.0,26.1,1.2,-32.4,5.73,2.26,-29.0,30.5
2012-06-05 02:12:00,0.0,,,,,,,,,,,0.98,-27.58,-26.80,-57,547,-924,26.1,15.7,-1.9,26.1,1.2,-32.5,5.73,2.28,-29.0,30.6
2012-06-05 02:13:00,0.0,,,,,,,,,,,0.93,-27.59,-27.06,-57,547,-924,26.1,15.4,-2.2,26.1,1.2,-32.6,5.73,2.27,-28.9,30.7
2012-06-05 02:14:00,0.0,,,,,,,,,,,0.91,-27.60,-27.29,-57,547,-923,26.1,15.4,-2.2,26.1,1.2,-32.7,5.73,2.26,-28.9,30.6
2012-06-05 02:15:00,0.0,,,,,,,,,,,0.93,-27.61,-27.51,-57,547,-924,26.2,15.6,-2.0,26.1,1.2,-32.6,5.73,2.29,-28.9,30.6
2012-06-05 02:16:00,0.0,,,,,,,,,,,0.87,-27.62,-27.56,-57,547,-924,26.2,15.6,-2.0,26.1,1.2,-32.6,5.73,2.25,-28.9,30.7
2012-06-05 02:17:00,0.0,,,,,,,,,,,0.96,-27.63,-27.37,-57,547,-923,26.2,15.4,-2.1,26.1,1.1,-32.7,5.73,2.29,-28.9,30.6
2012-06-05 02:18:00,0.0,,,,,,,,,,,0.98,-27.64,-27.49,-57,547,-923,26.2,15.4,-2.1,26.1,1.2,-32.6,5.73,2.26,-28.9,30.7
2012-06-05 02:19:00,0.0,,,,,,,,,,,0.98,-27.65,-27.65,-57,547,-924,26.2,15.7,-1.9,26.1,1.2,-32.7,5.73,2.27,-28.9,30.7
2012-06-05 02:20:00,0.0,,,,,,,,,,,0.97,-27.66,-27.41,-57,547,-924,26.2,15.8,-1.7,26.1,1.1,-32.7,5.73,2.28,-28.9,30.8
2012-06-05 02:21:00,0.0,,,,,,,,,,,0.98,-27.67,-27.45,-57,547,-923,26.2,15.9,-1.7,26.2,1.2,-32.7,5.73,2.25,-28.9,30.7
2012-06-05 02:22:00,0.0,,,,,,,,,,,0.93,-27.67,-27.61,-57,547,-924,26.2,15.5,-2.0,26.2,1.1,-32.9,5.73,2.29,-28.9,30.8
2012-06-05 02:23:00,0.0,,,,,,,,,,,0.98,-27.68,-27.56,-57,547,-924,26.2,15.3,-2.2,26.2,1.1,-33.4,5.73,2.25,-28.9,30.7
2012-06-05 02:24:00,0.0,,,,,,,,,,,0.93,-27.69,-27.42,-57,548,-923,26.3,15.2,-2.2,26.2,1.1,-33.3,5.73,2.28,-28.9,30.7
2012-06-05 02:25:00,0.0,,,,,,,,,,,0.92,-27.69,-27.56,-57,548,-924,26.3,15.2,-2.3,26.2,1.1,-33.4,5.73,2.26,-28.9,30.8
2012-06-05 02:26:00,0.0,,,,,,,,,,,0.90,-27.69,-27.69,-57,548,-924,26.3,15.0,-2.4,26.2,1.1,-33.4,5.73,2.27,-28.8,30.8
2012-06-05 02:27:00,0.0,,,,,,,,,,,0.96,-27.72,-27.45,-57,548,-924,26.3,15.3,-2.1,26.2,1.1,-33.4,5.73,2.28,-28.8,30.8
2012-06-05 02:28:00,0.0,,,,,,,,,,,0.95,-27.72,-27.53,-57,548,-924,26.3,15.4,-2.1,26.2,1.1,-33.5,5.73,2.25,-28.8,30.8
2012-06-05 02:29:00,0.0,,,,,,,,,,,0.87,-27.62,-27.70,-57,548,-924,26.3,15.1,-2.3,26.2,1.1,-33.3,5.73,2.29,-28.8,30.9
2012-06-05 02:30:00,0.0,,,,,,,,,,,0.94,-26.40,-27.88,-57,548,-924,26.3,15.1,-2.3,26.2,1.1,-33.1,5.73,2.25,-28.8,30.8
2012-06-05 02:31:00,0.0,,,,,,,,,,,0.94,-24.52,-28.02,-57,548,-924,26.3,15.5,-2.0,26.2,1.2,-32.2,5.73,2.29,-28.8,30.8
2012-06-05 02:32:00,0.0,,,,,,,,,,,0.79,-22.57,-28.11,-57,548,-924,26.3,15.5,-2.0,26.3,1.3,-31.5,5.73,2.25,-28.8,30.7
2012-06-05 02:33:00,0.0,,,,,,,,,,,0.82,-20.67,-28.17,-57,548,-924,26.3,15.6,-1.9,26.2,1.3,-31.2,5.73,2.27,-28.9,30.6
2012-06-05 02:34:00,0.0,,,,,,,,,,,0.89,-18.86,-28.22,-57,548,-924,26.3,15.6,-1.9,26.2,1.3,-31.0,5.73,2.28,-28.9,30.6
2012-06-05 02:35:00,0.0,,,,,,,,,,,0.95,-17.14,-28.25,-57,548,-924,26.3,15.8,-1.7,26.2,1.3,-31.1,5.73,2.25,-28.9,30.6
2012-06-05 02:36:00,0.0,,,,,,,,,,,0.89,-15.49,-28.27,-57,548,-924,26.3,15.6,-2.0,26.2,1.3,-31.2,5.73,2.29,-28.9,30.6
2012-06-05 02:37:00,0.0,,,,,,,,,,,0.79,-13.93,-28.29,-57,548,-924,26.3,15.6,-1.9,26.2,1.3,-31.5,5.73,2.25,-28.9,30.5
2012-06-05 02:38:00,0.0,,,,,,,,,,,0.85,-12.47,-28.30,-57,548,-924,26.3,15.3,-2.2,26.2,1.3,-31.6,5.73,2.29,-28.9,30.5
2012-06-05 02:39:00,0.0,,,,,,,,,,,0.90,-11.07,-28.32,-57,548,-924,26.3,15.5,-2.0,26.2,1.2,-31.8,5.73,2.26,-29.0,30.4
2012-06-05 02:40:00,0.0,,,,,,,,,,,0.95,-9.74,-28.32,-57,548,-924,26.3,15.3,-2.2,26.2,1.2,-31.9,5.73,2.28,-29.0,30.5
2012-06-05 02:41:00,0.0,,,,,,,,,,,0.92,-8.49,-28.33,-57,548,-924,26.3,15.3,-2.1,26.2,1.2,-32.1,5.73,2.27,-29.0,30.6
2012-06-05 02:42:00,0.0,,,,,,,,,,,0.79,-7.28,-28.33,-57,548,-924,26.3,15.6,-1.9,26.2,1.2,-32.1,5.73,2.26,-29.0,30.5
2012-06-05 02:43:00,0.0,,,,,,,,,,,0.84,-6.15,-28.33,-57,548,-924,26.3,15.4,-2.1,26.2,1.2,-32.3,5.73,2.28,-29.0,30.5
2012-06-05 02:44:00,0.0,,,,,,,,,,,0.89,-5.07,-28.34,-57,547,-924,26.3,15.4,-2.1,26.2,1.2,-32.4,5.73,2.25,-29.0,30.5
2012-06-05 02:45:00,0.0,,,,,,,,,,,0.94,-4.03,-28.34,-57,548,-924,26.3,15.4,-2.1,26.2,1.2,-32.4,5.73,2.29,-29.0,30.5
2012-06-05 02:46:00,0.0,,,,,,,,,,,0.96,-3.03,-28.35,-57,548,-924,26.3,15.3,-2.1,26.2,1.2,-32.6,5.73,2.25,-29.0,30.4
2012-06-05 02:47:00,0.0,,,,,,,,,,,0.88,-2.09,-28.35,-57,548,-924,26.3,15.5,-2.0,26.2,1.2,-32.6,5.73,2.28,-29.0,30.4
2012-06-05 02:48:00,0.0,,,,,,,,,,,0.83,-1.20,-28.35,-57,548,-924,26.3,15.5,-2.0,26.2,1.1,-32.8,5.73,2.27,-29.0,30.3
2012-06-05 02:49:00,0.0,,,,,,,,,,,0.85,-0.35,-28.34,-57,547,-924,26.3,15.3,-2.1,26.2,1.1,-32.8,5.73,2.26,-29.0,30.2
2012-06-05 02:50:00,0.0,,,,,,,,,,,0.88,0.45,-28.33,-57,548,-924,26.3,15.4,-2.1,26.2,1.1,-32.8,5.73,2.29,-29.0,30.2
2012-06-05 02:51:00,0.0,,,,,,,,,,,0.92,1.21,-28.33,-57,548,-924,26.3,15.6,-1.9,26.2,1.1,-32.8,5.73,2.25,-29.0,30.2
2012-06-05 02:52:00,0.0,,,,,,,,,,,0.95,1.92,-28.33,-57,548,-924,26.3,15.4,-2.0,26.2,1.1,-33.0,5.73,2.29,-29.0,30.2
2012-06-05 02:53:00,0.0,,,,,,,,,,,0.94,2.56,-28.32,-57,548,-924,26.3,15.2,-2.2,26.2,1.1,-33.1,5.73,2.26,-29.0,30.2
2012-06-05 02:54:00,0.0,,,,,,,,,,,0.88,2.99,-28.32,-57,548,-924,26.3,15.1,-2.3,26.2,1.1,-33.1,5.73,2.28,-29.0,30.2
2012-06-05 02:55:00,0.0,,,,,,,,,,,0.83,3.33,-28.30,-57,547,-924,26.3,15.2,-2.3,26.2,1.1,-33.1,5.73,2.28,-29.0,30.3
2012-06-05 02:56:00,0.0,,,,,,,,,,,0.86,3.75,-28.30,-57,547,-924,26.3,15.6,-1.9,26.2,1.1,-33.1,5.73,2.26,-29.0,30.3
2012-06-05 02:57:00,0.0,,,,,,,,,,,0.88,4.24,-28.29,-57,547,-924,26.3,15.5,-2.0,26.2,1.1,-33.1,5.73,2.29,-29.0,30.3
2012-06-05 02:58:00,0.0,,,,,,,,,,,0.91,4.76,-28.28,-57,547,-924,26.3,15.7,-1.8,26.2,1.1,-33.2,5.73,2.25,-29.0,30.3
2012-06-05 02:59:00,0.0,,,,,,,,,,,0.94,5.27,-28.27,-57,547,-924,26.3,15.6,-1.9,26.2,1.1,-33.4,5.73,2.30,-29.0,30.3
2012-06-05 03:00:00,0.0,,,,,,,,,,,0.94,5.75,-28.26,-57,547,-924,26.3,15.5,-2.0,26.2,1.1,-33.4,5.73,2.26,-29.0,30.3
2012-06-05 03:01:00,0.0,,,,,,,,,,,0.87,6.21,-28.25,-57,547,-924,26.3,15.5,-2.0,26.2,1.1,-33.3,5.73,2.28,-29.0,30.2
2012-06-05 03:02:00,0.0,,,,,,,,,,,0.84,6.66,-28.25,-57,547,-924,26.3,15.3,-2.1,26.2,1.1,-33.3,5.73,2.28,-29.0,30.2
2012-06-05 03:03:00,0.0,,,,,,,,,,,0.87,7.09,-28.24,-57,547,-924,26.3,15.4,-2.0,26.2,1.1,-33.3,5.73,2.26,-29.0,30.1
2012-06-05 03:04:00,0.0,,,,,,,,,,,0.88,7.50,-28.23,-57,547,-924,26.3,15.5,-1.9,26.2,1.1,-33.3,5.73,2.29,-29.0,30.0
2012-06-05 03:05:00,0.0,,,,,,,,,,,0.90,7.89,-28.23,-57,547,-924,26.3,15.4,-2.0,26.2,1.1,-33.5,5.73,2.25,-29.0,30.0
2012-06-05 03:06:00,0.0,,,,,,,,,,,0.93,8.27,-28.21,-57,547,-924,26.3,15.3,-2.1,26.2,1.0,-33.7,5.73,2.29,-29.0,30.0
2012-06-05 03:07:00,0.0,,,,,,,,,,,0.95,8.64,-28.20,-57,547,-924,26.3,15.4,-2.0,26.2,1.0,-33.6,5.73,2.26,-29.0,30.1
2012-06-05 03:08:00,0.0,,,,,,,,,,,0.93,8.99,-28.20,-57,547,-924,26.3,15.5,-2.0,26.2,1.0,-33.6,5.73,2.27,-29.0,30.0
2012-06-05 03:09:00,0.0,,,,,,,,,,,0.85,9.34,-28.19,-57,547,-924,26.3,15.5,-1.9,26.2,1.1,-33.6,5.73,2.28,-29.0,30.0
2012-06-05 03:10:00,0.0,,,,,,,,,,,0.85,9.67,-28.18,-57,547,-924,26.3,15.5,-1.9,26.2,1.0,-33.6,5.73,2.25,-29.0,30.1
2012-06-05 03:11:00,0.0,,,,,,,,,,,0.87,9.99,-28.18,-57,547,-924,26.3,15.4,-2.0,26.2,1.0,-33.6,5.73,2.29,-29.0,30.1
2012-06-05 03:12:00,0.0,,,,,,,,,,,0.90,10.30,-28.17,-57,547,-924,26.3,15.2,-2.2,26.2,1.0,-33.7,5.73,2.25,-29.0,30.1
2012-06-05 03:13:00,0.0,,,,,,,,,,,0.90,10.61,-28.16,-57,547,-924,26.3,15.4,-2.1,26.2,1.0,-33.7,5.73,2.29,-29.0,30.0
2012-06-05 03:14:00,0.0,,,,,,,,,,,0.93,10.90,-28.15,-57,547,-924,26.3,15.5,-2.0,26.2,1.0,-33.6,5.73,2.26,-29.0,30.1
2012-06-05 03:15:00,0.0,,,,,,,,,,,0.94,11.18,-28.14,-57,547,-924,26.3,15.7,-1.8,26.2,1.1,-33.6,5.73,2.28,-29.0,30.1
2012-06-05 03:16:00,0.0,,,,,,,,,,,0.91,11.45,-28.14,-57,547,-924,26.3,15.8,-1.7,26.2,1.0,-33.6,5.73,2.28,-29.0,30.0
2012-06-05 03:17:00,0.0,,,,,,,,,,,0.88,11.71,-28.13,-57,547,-924,26.3,15.6,-1.9,26.2,1.0,-33.6,5.73,2.26,-29.0,30.0
2012-06-05 03:18:00,0.0,,,,,,,,,,,0.85,11.96,-28.12,-57,547,-924,26.3,15.6,-1.8,26.2,1.0,-33.6,5.73,2.29,-29.0,30.0
2012-06-05 03:19:00,0.0,,,,,,,,,,,0.87,12.20,-28.11,-57,547,-924,26.3,15.7,-1.7,26.2,1.1,-33.6,5.73,2.25,-29.0,30.0
2012-06-05 03:20:00,0.0,,,,,,,,,,,0.88,12.43,-28.11,-57,547,-924,26.3,15.6,-1.8,26.2,1.0,-33.6,5.73,2.29,-29.0,30.1